TAM3034 SBSP-SBFL

Flight info

Callsign TAM3034
Flight time 0h 50m
Altitude 34000
Route MADNI UZ92 PUBIS
Aircraft A320/M-SDE3FGHIRWY/LB1

Departure

Time 2026-04-23 00:41
Airport Congonhas–Deputado Freitas Nobre Airport (SBSP)

Arrival

Time 2026-04-23 01:31
Airport Hercílio Luz International Airport (SBFL)
Time Latitude Longitude Altitude Speed Heading
2026-04-23 00:14 -23.62570 -46.65926 2601 ft 0 kts 237°
2026-04-23 00:33 -23.62570 -46.65925 2600 ft 1 kts 237°
2026-04-23 00:33 -23.62559 -46.65903 2601 ft 4 kts 261°
2026-04-23 00:33 -23.62562 -46.65877 2601 ft 4 kts 313°
2026-04-23 00:33 -23.62573 -46.65868 2601 ft 1 kts 328°
2026-04-23 00:34 -23.62574 -46.65867 2601 ft 0 kts 328°
2026-04-23 00:37 -23.62573 -46.65867 2601 ft 2 kts 329°
2026-04-23 00:37 -23.62520 -46.65872 2601 ft 9 kts 357°
2026-04-23 00:38 -23.62470 -46.65890 2601 ft 7 kts 330°
2026-04-23 00:38 -23.62430 -46.65917 2601 ft 7 kts 328°
2026-04-23 00:38 -23.62394 -46.65943 2601 ft 6 kts 327°
2026-04-23 00:38 -23.62337 -46.65983 2600 ft 16 kts 327°
2026-04-23 00:39 -23.62249 -46.66042 2600 ft 14 kts 334°
2026-04-23 00:39 -23.62170 -46.66090 2599 ft 9 kts 327°
2026-04-23 00:39 -23.62149 -46.66104 2599 ft 0 kts 327°
2026-04-23 00:39 -23.62139 -46.66111 2599 ft 9 kts 327°
2026-04-23 00:40 -23.62058 -46.66132 2596 ft 12 kts 21°
2026-04-23 00:40 -23.62045 -46.66080 2589 ft 7 kts 131°
2026-04-23 00:40 -23.62064 -46.66065 2596 ft 0 kts 147°
2026-04-23 00:40 -23.62069 -46.66062 2596 ft 6 kts 147°
2026-04-23 00:41 -23.62337 -46.65876 2601 ft 91 kts 147°
2026-04-23 00:41 -23.63098 -46.65346 2645 ft 160 kts 147°
2026-04-23 00:41 -23.64058 -46.64708 3543 ft 162 kts 153°
2026-04-23 00:41 -23.65122 -46.64382 4462 ft 156 kts 177°
2026-04-23 00:42 -23.66171 -46.64580 5286 ft 153 kts 204°
2026-04-23 00:42 -23.67190 -46.65006 5819 ft 165 kts 187°
2026-04-23 00:42 -23.68416 -46.65050 6060 ft 187 kts 179°
2026-04-23 00:42 -23.69801 -46.64991 6290 ft 212 kts 179°
2026-04-23 00:43 -23.71357 -46.64938 6619 ft 235 kts 180°
2026-04-23 00:43 -23.73054 -46.64916 6972 ft 259 kts 181°
2026-04-23 00:43 -23.74891 -46.65268 7391 ft 276 kts 205°
2026-04-23 00:43 -23.76344 -46.66619 7485 ft 278 kts 238°
2026-04-23 00:44 -23.76975 -46.68617 7500 ft 280 kts 257°
2026-04-23 00:44 -23.77383 -46.70672 7492 ft 281 kts 252°
2026-04-23 00:44 -23.78167 -46.72622 7489 ft 280 kts 240°
2026-04-23 00:44 -23.79176 -46.74448 7507 ft 282 kts 236°
2026-04-23 00:45 -23.80302 -46.76236 8224 ft 285 kts 233°
2026-04-23 00:45 -23.81458 -46.78013 9130 ft 287 kts 233°
2026-04-23 00:45 -23.82604 -46.79790 9941 ft 292 kts 233°
2026-04-23 00:45 -23.83960 -46.81499 10357 ft 308 kts 216°
2026-04-23 00:46 -23.85933 -46.82547 10649 ft 325 kts 193°
2026-04-23 00:46 -23.88174 -46.83091 11247 ft 333 kts 191°
2026-04-23 00:46 -23.90453 -46.83636 11948 ft 337 kts 192°
2026-04-23 00:46 -23.92762 -46.84195 12666 ft 341 kts 192°
2026-04-23 00:47 -23.95093 -46.84759 13399 ft 344 kts 192°
2026-04-23 00:47 -23.97419 -46.85326 14098 ft 348 kts 192°
2026-04-23 00:47 -23.99801 -46.85909 14731 ft 351 kts 192°
2026-04-23 00:47 -24.02206 -46.86501 15352 ft 355 kts 193°
2026-04-23 00:48 -24.04627 -46.87096 15980 ft 358 kts 193°
2026-04-23 00:48 -24.07045 -46.87686 16591 ft 361 kts 193°
2026-04-23 00:48 -24.09515 -46.88288 17216 ft 364 kts 193°
2026-04-23 00:48 -24.12000 -46.88896 17825 ft 367 kts 193°
2026-04-23 00:49 -24.14512 -46.89512 18427 ft 370 kts 193°
2026-04-23 00:49 -24.17040 -46.90133 18950 ft 373 kts 193°
2026-04-23 00:49 -24.18721 -46.90545 19305 ft 375 kts 193°
2026-04-23 00:49 -24.21270 -46.91173 19847 ft 377 kts 194°
2026-04-23 00:50 -24.23834 -46.91806 20387 ft 379 kts 194°
2026-04-23 00:50 -24.26417 -46.92444 20926 ft 381 kts 194°
2026-04-23 00:50 -24.29017 -46.93085 21457 ft 383 kts 194°
2026-04-23 00:50 -24.31621 -46.93729 21992 ft 385 kts 194°
2026-04-23 00:51 -24.34244 -46.94377 22517 ft 387 kts 195°
2026-04-23 00:51 -24.36853 -46.95020 23033 ft 389 kts 195°
2026-04-23 00:51 -24.39508 -46.95671 23564 ft 391 kts 195°
2026-04-23 00:51 -24.42182 -46.96325 24006 ft 393 kts 195°
2026-04-23 00:52 -24.44840 -46.96976 24399 ft 396 kts 195°
2026-04-23 00:52 -24.47547 -46.97642 24775 ft 398 kts 195°
2026-04-23 00:52 -24.50272 -46.98312 25163 ft 401 kts 195°
2026-04-23 00:52 -24.53003 -46.98984 25532 ft 403 kts 196°
2026-04-23 00:53 -24.55716 -46.99656 25897 ft 406 kts 196°
2026-04-23 00:53 -24.58480 -47.00352 26263 ft 407 kts 198°
2026-04-23 00:53 -24.61148 -47.01399 26615 ft 406 kts 207°
2026-04-23 00:53 -24.63607 -47.02912 26962 ft 405 kts 215°
2026-04-23 00:54 -24.65987 -47.04607 27335 ft 407 kts 216°
2026-04-23 00:54 -24.68374 -47.06306 27688 ft 409 kts 216°
2026-04-23 00:54 -24.70770 -47.08008 28034 ft 411 kts 216°
2026-04-23 00:54 -24.73153 -47.09695 28372 ft 413 kts 216°
2026-04-23 00:55 -24.75588 -47.11418 28698 ft 415 kts 216°
2026-04-23 00:55 -24.78026 -47.13146 29029 ft 417 kts 216°
2026-04-23 00:55 -24.80473 -47.14885 29348 ft 419 kts 216°
2026-04-23 00:55 -24.82934 -47.16635 29666 ft 421 kts 216°
2026-04-23 00:56 -24.85402 -47.18392 29977 ft 423 kts 216°
2026-04-23 00:56 -24.87855 -47.20138 30236 ft 426 kts 216°
2026-04-23 00:56 -24.90359 -47.21916 30488 ft 428 kts 216°
2026-04-23 00:56 -24.92868 -47.23698 30750 ft 429 kts 216°
2026-04-23 00:57 -24.95383 -47.25486 31034 ft 430 kts 216°
2026-04-23 00:57 -24.97875 -47.27260 31314 ft 430 kts 216°
2026-04-23 00:57 -25.00401 -47.29060 31562 ft 431 kts 216°
2026-04-23 00:57 -25.02923 -47.30860 31841 ft 432 kts 216°
2026-04-23 00:58 -25.05446 -47.32662 32190 ft 430 kts 216°
2026-04-23 00:58 -25.07959 -47.34459 32547 ft 429 kts 216°
2026-04-23 00:58 -25.10467 -47.36255 32898 ft 427 kts 216°
2026-04-23 00:58 -25.12929 -47.38020 33243 ft 426 kts 216°
2026-04-23 00:59 -25.15419 -47.39802 33599 ft 425 kts 216°
2026-04-23 00:59 -25.17908 -47.41581 33952 ft 424 kts 216°
2026-04-23 00:59 -25.20385 -47.43352 34102 ft 422 kts 216°
2026-04-23 01:00 -25.25182 -47.46784 34130 ft 408 kts 216°
2026-04-23 01:00 -25.29922 -47.50191 34129 ft 405 kts 216°
2026-04-23 01:01 -25.34648 -47.53589 34129 ft 404 kts 216°
2026-04-23 01:01 -25.39376 -47.56985 34122 ft 404 kts 216°
2026-04-23 01:02 -25.44075 -47.60369 34126 ft 404 kts 216°
2026-04-23 01:02 -25.48802 -47.63777 34123 ft 405 kts 216°
2026-04-23 01:03 -25.53506 -47.67167 34120 ft 405 kts 216°
2026-04-23 01:03 -25.58229 -47.70570 34126 ft 405 kts 217°
2026-04-23 01:04 -25.62959 -47.73986 34132 ft 404 kts 217°
2026-04-23 01:04 -25.69998 -47.79078 34136 ft 404 kts 217°
2026-04-23 01:05 -25.74711 -47.82492 34138 ft 404 kts 217°
2026-04-23 01:05 -25.79419 -47.85898 34124 ft 403 kts 217°
2026-04-23 01:06 -25.84124 -47.89313 34123 ft 403 kts 217°
2026-04-23 01:06 -25.88795 -47.92707 34129 ft 403 kts 217°
2026-04-23 01:07 -25.93490 -47.96117 34139 ft 402 kts 217°
2026-04-23 01:07 -25.98173 -47.99528 34131 ft 402 kts 217°
2026-04-23 01:08 -26.02922 -48.02833 34124 ft 405 kts 210°
2026-04-23 01:08 -26.08299 -48.04849 34118 ft 412 kts 201°
2026-04-23 01:09 -26.13821 -48.06576 34131 ft 412 kts 201°
2026-04-23 01:09 -26.19349 -48.08313 34124 ft 416 kts 201°
2026-04-23 01:10 -26.22159 -48.09204 33854 ft 425 kts 201°
2026-04-23 01:10 -26.25020 -48.10112 33001 ft 428 kts 201°
2026-04-23 01:10 -26.27883 -48.11018 32260 ft 427 kts 201°
2026-04-23 01:10 -26.30747 -48.11922 31639 ft 424 kts 201°
2026-04-23 01:11 -26.33537 -48.12800 31135 ft 419 kts 201°
2026-04-23 01:11 -26.36337 -48.13682 30622 ft 415 kts 201°
2026-04-23 01:11 -26.39110 -48.14559 30110 ft 411 kts 202°
2026-04-23 01:11 -26.41850 -48.15427 29599 ft 406 kts 202°
2026-04-23 01:12 -26.44555 -48.16282 29103 ft 401 kts 201°
2026-04-23 01:12 -26.47231 -48.17129 28645 ft 395 kts 201°
2026-04-23 01:12 -26.49855 -48.17963 28192 ft 390 kts 201°
2026-04-23 01:12 -26.52419 -48.18777 27755 ft 385 kts 201°
2026-04-23 01:13 -26.54982 -48.19591 27318 ft 381 kts 201°
2026-04-23 01:13 -26.57529 -48.20400 26884 ft 377 kts 201°
2026-04-23 01:13 -26.60041 -48.21199 26458 ft 373 kts 201°
2026-04-23 01:13 -26.62530 -48.21992 26030 ft 370 kts 201°
2026-04-23 01:14 -26.65005 -48.22783 25584 ft 367 kts 201°
2026-04-23 01:14 -26.67424 -48.23557 25153 ft 364 kts 200°
2026-04-23 01:14 -26.69852 -48.24333 24696 ft 363 kts 200°
2026-04-23 01:14 -26.72277 -48.25106 24241 ft 361 kts 200°
2026-04-23 01:15 -26.74686 -48.25871 23783 ft 360 kts 200°
2026-04-23 01:15 -26.77095 -48.26636 23256 ft 358 kts 199°
2026-04-23 01:15 -26.79479 -48.27395 22792 ft 355 kts 199°
2026-04-23 01:15 -26.81851 -48.28151 22335 ft 352 kts 199°
2026-04-23 01:16 -26.84195 -48.28899 21885 ft 349 kts 199°
2026-04-23 01:16 -26.86538 -48.29650 21440 ft 347 kts 198°
2026-04-23 01:16 -26.88853 -48.30392 21006 ft 345 kts 198°
2026-04-23 01:16 -26.91132 -48.31121 20572 ft 343 kts 198°
2026-04-23 01:17 -26.93427 -48.31852 20130 ft 342 kts 198°
2026-04-23 01:17 -26.95717 -48.32581 19706 ft 341 kts 197°
2026-04-23 01:17 -26.97993 -48.33307 19278 ft 340 kts 197°
2026-04-23 01:17 -27.00273 -48.34037 18858 ft 339 kts 197°
2026-04-23 01:18 -27.02568 -48.34668 18446 ft 339 kts 189°
2026-04-23 01:18 -27.04918 -48.34824 17993 ft 338 kts 178°
2026-04-23 01:18 -27.07235 -48.34685 17591 ft 336 kts 178°
2026-04-23 01:18 -27.09564 -48.34545 17188 ft 334 kts 178°
2026-04-23 01:19 -27.11883 -48.34412 16797 ft 331 kts 178°
2026-04-23 01:19 -27.14186 -48.34283 16403 ft 329 kts 177°
2026-04-23 01:19 -27.16456 -48.34154 16021 ft 328 kts 177°
2026-04-23 01:19 -27.18730 -48.34024 15638 ft 326 kts 177°
2026-04-23 01:20 -27.20992 -48.33896 15255 ft 324 kts 177°
2026-04-23 01:20 -27.23227 -48.33769 14884 ft 323 kts 177°
2026-04-23 01:20 -27.25467 -48.33642 14503 ft 322 kts 177°
2026-04-23 01:20 -27.27707 -48.33516 14123 ft 320 kts 176°
2026-04-23 01:21 -27.29931 -48.33387 13716 ft 319 kts 176°
2026-04-23 01:21 -27.32114 -48.33258 13338 ft 317 kts 176°
2026-04-23 01:21 -27.34309 -48.33129 12961 ft 314 kts 176°
2026-04-23 01:21 -27.36492 -48.33001 12578 ft 312 kts 176°
2026-04-23 01:22 -27.38651 -48.32878 12207 ft 309 kts 177°
2026-04-23 01:22 -27.40799 -48.32756 11828 ft 307 kts 177°
2026-04-23 01:22 -27.42899 -48.32636 11441 ft 296 kts 177°
2026-04-23 01:22 -27.44961 -48.32519 11073 ft 295 kts 177°
2026-04-23 01:23 -27.47009 -48.32400 10693 ft 294 kts 177°
2026-04-23 01:23 -27.49002 -48.32283 10330 ft 284 kts 177°
2026-04-23 01:23 -27.50936 -48.32170 9971 ft 272 kts 177°
2026-04-23 01:23 -27.52792 -48.32061 9595 ft 261 kts 177°
2026-04-23 01:24 -27.54578 -48.31959 9178 ft 252 kts 177°
2026-04-23 01:24 -27.56296 -48.31861 8822 ft 242 kts 177°
2026-04-23 01:24 -27.57945 -48.31768 8495 ft 233 kts 177°
2026-04-23 01:24 -27.59539 -48.31679 8184 ft 227 kts 177°
2026-04-23 01:25 -27.61115 -48.31588 7863 ft 227 kts 177°
2026-04-23 01:25 -27.62698 -48.31496 7534 ft 228 kts 177°
2026-04-23 01:25 -27.64283 -48.31403 7208 ft 228 kts 177°
2026-04-23 01:25 -27.65874 -48.31310 6879 ft 228 kts 177°
2026-04-23 01:26 -27.67441 -48.31387 6537 ft 230 kts 192°
2026-04-23 01:26 -27.68924 -48.32024 6163 ft 225 kts 210°
2026-04-23 01:26 -27.70241 -48.32934 5802 ft 219 kts 210°
2026-04-23 01:26 -27.71525 -48.33812 5454 ft 213 kts 210°
2026-04-23 01:27 -27.72775 -48.34664 5120 ft 207 kts 210°
2026-04-23 01:27 -27.73994 -48.35493 4774 ft 202 kts 209°
2026-04-23 01:27 -27.75098 -48.36448 4414 ft 199 kts 234°
2026-04-23 01:27 -27.75520 -48.37892 4139 ft 196 kts 270°
2026-04-23 01:28 -27.75107 -48.39321 3815 ft 198 kts 300°
2026-04-23 01:28 -27.74381 -48.40656 3423 ft 201 kts 301°
2026-04-23 01:28 -27.73641 -48.42015 2981 ft 204 kts 302°
2026-04-23 01:28 -27.72907 -48.43365 2523 ft 199 kts 303°
2026-04-23 01:29 -27.72191 -48.44688 2095 ft 196 kts 303°
2026-04-23 01:29 -27.71508 -48.45951 1877 ft 178 kts 303°
2026-04-23 01:29 -27.70908 -48.47068 1692 ft 160 kts 303°
2026-04-23 01:29 -27.70345 -48.48115 1460 ft 154 kts 304°
2026-04-23 01:30 -27.69782 -48.49124 1204 ft 147 kts 304°
2026-04-23 01:30 -27.69261 -48.50107 948 ft 144 kts 300°
2026-04-23 01:30 -27.68738 -48.51069 705 ft 143 kts 301°
2026-04-23 01:30 -27.68237 -48.52036 481 ft 142 kts 301°
2026-04-23 01:31 -27.67729 -48.52966 208 ft 139 kts 303°
2026-04-23 01:31 -27.67241 -48.53864 33 ft 124 kts 303°
2026-04-23 01:31 -27.66875 -48.54536 28 ft 63 kts 300°
2026-04-23 01:31 -27.66770 -48.54744 27 ft 19 kts 300°
2026-04-23 01:32 -27.66701 -48.54878 27 ft 20 kts 301°
2026-04-23 01:32 -27.66652 -48.54971 30 ft 21 kts 301°
2026-04-23 01:32 -27.66597 -48.55098 29 ft 12 kts 270°
2026-04-23 01:32 -27.66632 -48.55139 27 ft 5 kts 195°
2026-04-23 01:33 -27.66664 -48.55139 27 ft 4 kts 171°
2026-04-23 01:33 -27.66690 -48.55131 27 ft 4 kts 164°
2026-04-23 01:33 -27.66710 -48.55124 27 ft 9 kts 163°
2026-04-23 01:33 -27.66731 -48.55116 27 ft 2 kts 162°
2026-04-23 01:34 -27.66745 -48.55111 27 ft 2 kts 159°
2026-04-23 01:34 -27.66801 -48.55053 27 ft 15 kts 123°
2026-04-23 01:34 -27.66854 -48.54954 27 ft 14 kts 121°
2026-04-23 01:34 -27.66907 -48.54856 27 ft 15 kts 120°
2026-04-23 01:35 -27.66965 -48.54747 27 ft 17 kts 122°
2026-04-23 01:35 -27.67031 -48.54629 27 ft 17 kts 122°
2026-04-23 01:35 -27.67112 -48.54612 27 ft 14 kts 210°
2026-04-23 01:35 -27.67201 -48.54588 27 ft 13 kts 133°
2026-04-23 01:36 -27.67237 -48.54553 27 ft 4 kts 194°
2026-04-23 01:36 -27.67263 -48.54573 27 ft 4 kts 212°
2026-04-23 01:36 -27.67271 -48.54579 27 ft 0 kts 212°